Location: Strohbehn Observatory
(42.4649°N, 93.8239°W)
Time: 22:14:18
(UTC-05:00)

SL-16 R/B - Visible Passes

Search period start: 25 August 2016 00:00
Search period end: 04 September 2016 00:00
Orbit: 842 x 846 km, 71.0° (Epoch: 25 August)

Date Brightness Start Highest point End Pass type
(mag) Time Alt. Az. Time Alt. Az. Time Alt. Az.
25 Aug 4.0 00:53:37 25° NW 00:53:38 25° NW 00:58:15 10° N visible
25 Aug 3.3 22:57:21 32° NE 22:57:21 32° NE 23:00:27 10° NNE visible
26 Aug 4.0 00:39:10 25° NW 00:39:22 26° NW 00:44:03 10° N visible
26 Aug 3.1 22:42:47 34° NE 22:42:47 34° NE 22:46:11 10° NE visible
27 Aug 3.9 00:24:36 26° WNW 00:25:05 26° NW 00:29:50 10° N visible
27 Aug 2.9 22:28:06 38° ENE 22:28:06 38° ENE 22:31:55 10° NE visible
28 Aug 3.9 00:09:53 26° WNW 00:10:49 27° NW 00:15:37 10° N visible
28 Aug 2.6 22:13:10 43° E 22:13:10 43° E 22:17:39 10° NE visible
28 Aug 3.9 23:54:57 24° W 23:56:32 28° NW 00:01:24 10° N visible
29 Aug 2.4 21:57:52 45° ESE 21:58:00 45° ESE 22:03:23 10° NE visible
29 Aug 3.9 23:39:37 20° W 23:42:16 29° NW 23:47:11 10° N visible
30 Aug 2.5 21:41:43 31° SSE 21:43:45 43° ESE 21:49:06 10° NE visible
30 Aug 3.9 23:23:20 11° WSW 23:28:00 30° NW 23:32:58 10° N visible
31 Aug 2.5 21:24:14 10° S 21:29:32 42° ESE 21:34:50 10° NE visible
31 Aug 3.9 23:08:46 10° WSW 23:13:44 31° NW 23:18:45 10° N visible
01 Sep 2.6 21:10:04 10° S 21:15:17 40° ESE 21:20:33 10° NE visible
01 Sep 3.8 22:54:26 10° WSW 22:59:28 32° NW 23:04:32 10° N visible
02 Sep 4.8 06:03:46 10° N 06:08:19 24° NE 06:12:51 10° ESE visible
02 Sep 2.6 20:55:52 10° S 21:01:03 39° ESE 21:06:17 10° NE visible
02 Sep 3.8 22:40:08 10° WSW 22:45:12 33° NW 22:50:18 10° N visible
03 Sep 4.8 05:49:33 10° N 05:54:03 23° NE 05:58:31 10° ESE visible
03 Sep 2.7 20:41:40 10° S 20:46:49 37° ESE 20:52:00 10° NE visible
03 Sep 3.8 22:25:49 10° WSW 22:30:56 34° NW 22:36:05 10° N visible
